| time (UTC) | temp F | wind direction | speed MPH | gust MPH | rain 1hr in | rain 24hr in | rain mn in | humidity % | barometer mb |
| 20260903124506 | 69 | 88 | 0.0 | 0.0 | 0.00 | 0.42 | 0.26 | 99 | 1014.8 |
| 20260903123005 | 68 | 88 | 0.0 | 1.0 | 0.00 | 0.42 | 0.26 | 99 | 1014.8 |
| 20260903121503 | 68 | 88 | 0.0 | 0.0 | 0.00 | 0.42 | 0.26 | 99 | 1014.8 |
| 20260903120001 | 67 | 88 | 0.0 | 0.0 | 0.00 | 0.42 | 0.26 | 99 | 1014.6 |
| 20260903114601 | 67 | 88 | 0.0 | 0.0 | 0.00 | 0.42 | 0.26 | 99 | 1014.7 |
| 20260903113059 | 67 | 88 | 0.0 | 1.0 | 0.00 | 0.42 | 0.26 | 99 | 1014.7 |
| 20260903111606 | 66 | 88 | 0.0 | 0.0 | 0.00 | 0.42 | 0.26 | 99 | 1014.9 |
| 20260903110057 | 66 | 88 | 0.0 | 0.0 | 0.00 | 0.42 | 0.26 | 99 | 1014.9 |
| 20260903104620 | 66 | 88 | 0.0 | 0.0 | 0.00 | 0.43 | 0.26 | 98 | 1014.9 |
| 20260903103104 | 66 | 88 | 0.0 | 0.0 | 0.00 | 0.43 | 0.26 | 98 | 1014.7 |
| 20260903101555 | 66 | 88 | 0.0 | 0.0 | 0.00 | 0.43 | 0.26 | 98 | 1015.0 |
| 20260903100155 | 66 | 88 | 0.0 | 0.0 | 0.00 | 0.43 | 0.26 | 98 | 1014.7 |
| 20260903094555 | 67 | 88 | 0.0 | 0.0 | 0.00 | 0.43 | 0.26 | 99 | 1014.5 |
| 20260903093102 | 67 | 88 | 0.0 | 0.0 | 0.00 | 0.43 | 0.26 | 99 | 1014.2 |
| 20260903091554 | 67 | 88 | 0.0 | 2.0 | 0.00 | 0.43 | 0.26 | 99 | 1014.5 |
| 20260903090052 | 66 | 88 | 0.0 | 2.0 | 0.00 | 0.43 | 0.26 | 98 | 1014.6 |
| 20260903084556 | 66 | 88 | 0.0 | 0.0 | 0.00 | 0.43 | 0.26 | 98 | 1014.8 |
| 20260903083057 | 66 | 88 | 0.0 | 0.0 | 0.00 | 0.43 | 0.26 | 98 | 1014.3 |
| 20260903081606 | 66 | 88 | 0.0 | 0.0 | 0.00 | 0.43 | 0.26 | 99 | 1014.8 |
| 20260903080046 | 66 | 88 | 0.0 | 0.0 | 0.00 | 0.43 | 0.26 | 99 | 1015.2 |
| 20260903074550 | 66 | 88 | 0.0 | 0.0 | 0.01 | 0.43 | 0.26 | 98 | 1015.4 |
| 20260903073044 | 66 | 88 | 0.0 | 0.0 | 0.01 | 0.43 | 0.26 | 98 | 1015.4 |
| 20260903071549 | 66 | 88 | 0.0 | 2.0 | 0.01 | 0.43 | 0.26 | 98 | 1015.4 |
| 20260903070042 | 66 | 88 | 0.0 | 0.0 | 0.01 | 0.43 | 0.26 | 98 | 1015.1 |
| 20260903064547 | 65 | 88 | 0.0 | 1.0 | 0.00 | 0.42 | 0.25 | 98 | 1015.3 |
| 20260903063045 | 65 | 88 | 0.0 | 2.0 | 0.00 | 0.42 | 0.25 | 98 | 1015.7 |
| 20260903061537 | 65 | 88 | 0.0 | 0.0 | 0.01 | 0.42 | 0.25 | 98 | 1015.8 |
| 20260903060037 | 65 | 88 | 0.0 | 0.0 | 0.07 | 0.42 | 0.25 | 98 | 1016.4 |
| 20260903054533 | 65 | 88 | 0.0 | 0.0 | 0.13 | 0.42 | 0.25 | 98 | 1016.5 |
| 20260903053036 | 65 | 88 | 0.0 | 0.0 | 0.19 | 0.42 | 0.25 | 98 | 1016.9 |
| 20260903051532 | 65 | 88 | 0.0 | 0.0 | 0.23 | 0.40 | 0.23 | 98 | 1016.7 |
| 20260903050040 | 65 | 88 | 0.0 | 2.0 | 0.18 | 0.35 | 0.18 | 98 | 1017.1 |
| 20260903044526 | 65 | 88 | 0.0 | 1.0 | 0.12 | 0.28 | 0.12 | 98 | 1018.5 |
| 20260903043024 | 65 | 84 | 0.0 | 1.0 | 0.05 | 0.22 | 0.05 | 98 | 1018.9 |
| 20260903041522 | 65 | 84 | 0.0 | 0.0 | 0.00 | 0.17 | 0.00 | 98 | 1018.1 |
| 20260903040020 | 65 | 84 | 0.0 | 0.0 | 0.00 | 0.17 | 0.17 | 98 | 1018.3 |
| 20260903034519 | 65 | 84 | 0.0 | 0.0 | 0.00 | 0.17 | 0.17 | 98 | 1018.1 |
| 20260903033019 | 65 | 84 | 0.0 | 0.0 | 0.00 | 0.17 | 0.17 | 98 | 1018.2 |
| 20260903031518 | 65 | 84 | 0.0 | 0.0 | 0.00 | 0.17 | 0.17 | 98 | 1018.2 |
| 20260903030017 | 65 | 84 | 0.0 | 0.0 | 0.00 | 0.17 | 0.17 | 98 | 1018.0 |
| 20260903024516 | 65 | 84 | 0.0 | 0.0 | 0.00 | 0.17 | 0.17 | 97 | 1018.3 |
| 20260903023025 | 65 | 84 | 0.0 | 2.0 | 0.00 | 0.17 | 0.17 | 98 | 1018.4 |
| 20260903021519 | 65 | 84 | 0.0 | 0.0 | 0.00 | 0.17 | 0.17 | 97 | 1018.2 |
| 20260903020045 | 65 | 84 | 0.0 | 0.0 | 0.00 | 0.17 | 0.17 | 97 | 1018.7 |
| 20260903014514 | 65 | 84 | 0.0 | 0.0 | 0.00 | 0.17 | 0.17 | 97 | 1018.6 |
| 20260903013013 | 65 | 84 | 0.0 | 0.0 | 0.00 | 0.17 | 0.17 | 97 | 1018.7 |
| 20260903011513 | 65 | 84 | 0.0 | 0.0 | 0.00 | 0.17 | 0.17 | 97 | 1018.8 |
| 20260903010012 | 65 | 84 | 0.0 | 0.0 | 0.00 | 0.18 | 0.17 | 97 | 1018.9 |
| 20260903004511 | 65 | 84 | 0.0 | 0.0 | 0.00 | 0.18 | 0.17 | 97 | 1019.0 |
| 20260903003011 | 65 | 84 | 0.0 | 0.0 | 0.00 | 0.18 | 0.17 | 97 | 1019.0 |
| 20260903001510 | 65 | 84 | 0.0 | 0.0 | 0.00 | 0.18 | 0.17 | 96 | 1019.0 |
| 20260903000010 | 65 | 84 | 0.0 | 0.0 | 0.00 | 0.18 | 0.17 | 96 | 1018.8 |
| 20260902234510 | 65 | 84 | 0.0 | 0.0 | 0.00 | 0.18 | 0.17 | 96 | 1018.2 |
| 20260902233011 | 65 | 84 | 0.0 | 3.0 | 0.00 | 0.18 | 0.17 | 96 | 1018.3 |
| 20260902231510 | 65 | 84 | 0.0 | 2.0 | 0.00 | 0.18 | 0.17 | 96 | 1018.6 |
| 20260902230008 | 66 | 73 | 0.0 | 0.0 | 0.00 | 0.18 | 0.17 | 96 | 1018.7 |
| 20260902224513 | 66 | 73 | 0.0 | 3.0 | 0.00 | 0.18 | 0.17 | 96 | 1018.7 |
| 20260902223007 | 66 | 70 | 0.0 | 3.0 | 0.00 | 0.18 | 0.17 | 96 | 1019.1 |
| 20260902221510 | 66 | 83 | 0.0 | 2.0 | 0.00 | 0.18 | 0.17 | 96 | 1019.1 |
| 20260902220008 | 67 | 94 | 0.0 | 2.0 | 0.00 | 0.18 | 0.17 | 96 | 1019.0 |
| 20260902214506 | 67 | 94 | 0.0 | 0.0 | 0.00 | 0.18 | 0.17 | 96 | 1019.3 |
| 20260902213005 | 67 | 94 | 0.0 | 2.0 | 0.00 | 0.18 | 0.17 | 96 | 1019.3 |
| 20260902211505 | 67 | 94 | 0.0 | 1.0 | 0.00 | 0.18 | 0.17 | 96 | 1019.1 |
| 20260902210004 | 67 | 94 | 0.0 | 1.0 | 0.00 | 0.18 | 0.17 | 96 | 1019.0 |
| 20260902204503 | 67 | 89 | 0.0 | 1.0 | 0.00 | 0.18 | 0.17 | 96 | 1019.3 |
| 20260902203004 | 67 | 66 | 0.0 | 3.0 | 0.00 | 0.18 | 0.17 | 96 | 1019.0 |
| 20260902201505 | 67 | 105 | 0.0 | 4.0 | 0.00 | 0.18 | 0.17 | 97 | 1018.9 |
| 20260902200002 | 66 | 96 | 0.0 | 1.0 | 0.00 | 0.19 | 0.17 | 97 | 1018.9 |
| 20260902194615 | 66 | 96 | 0.0 | 1.0 | 0.05 | 0.19 | 0.17 | 97 | 1019.2 |
| 20260902193100 | 66 | 96 | 0.0 | 1.0 | 0.08 | 0.19 | 0.17 | 97 | 1019.4 |
| 20260902191604 | 66 | 96 | 0.0 | 0.0 | 0.13 | 0.19 | 0.17 | 97 | 1019.4 |
| 20260902190056 | 65 | 96 | 0.0 | 0.0 | 0.16 | 0.19 | 0.17 | 97 | 1019.9 |
| 20260902184555 | 65 | 96 | 0.0 | 0.0 | 0.11 | 0.14 | 0.12 | 97 | 1020.1 |
| 20260902183135 | 65 | 96 | 0.0 | 2.0 | 0.07 | 0.10 | 0.08 | 96 | 1020.0 |
| 20260902181559 | 66 | 96 | 0.0 | 2.0 | 0.03 | 0.06 | 0.04 | 96 | 1020.7 |
| 20260902180054 | 66 | 96 | 0.0 | 1.0 | 0.00 | 0.03 | 0.01 | 96 | 1020.2 |
| 20260902174551 | 66 | 96 | 0.0 | 0.0 | 0.00 | 0.03 | 0.01 | 96 | 1019.8 |
| 20260902173056 | 65 | 96 | 0.0 | 0.0 | 0.00 | 0.03 | 0.01 | 96 | 1019.8 |
| 20260902171558 | 65 | 96 | 0.0 | 0.0 | 0.00 | 0.03 | 0.01 | 96 | 1019.9 |
| 20260902170048 | 65 | 96 | 0.0 | 2.0 | 0.00 | 0.03 | 0.01 | 95 | 1019.8 |
| 20260902164559 | 64 | 96 | 0.0 | 0.0 | 0.00 | 0.05 | 0.01 | 96 | 1020.0 |
| 20260902163046 | 64 | 96 | 0.0 | 0.0 | 0.00 | 0.05 | 0.01 | 96 | 1020.4 |
| 20260902161546 | 64 | 96 | 0.0 | 3.0 | 0.00 | 0.05 | 0.01 | 96 | 1020.4 |
| 20260902160048 | 64 | 96 | 0.0 | 0.0 | 0.00 | 0.05 | 0.01 | 96 | 1020.3 |
| 20260902154553 | 64 | 96 | 0.0 | 0.0 | 0.00 | 0.08 | 0.01 | 97 | 1020.3 |
| 20260902153044 | 63 | 96 | 0.0 | 0.0 | 0.00 | 0.08 | 0.01 | 96 | 1020.3 |
| 20260902151543 | 63 | 96 | 0.0 | 0.0 | 0.00 | 0.08 | 0.01 | 97 | 1020.4 |
| 20260902150043 | 63 | 96 | 0.0 | 2.0 | 0.00 | 0.08 | 0.01 | 97 | 1020.6 |
| 20260902144544 | 63 | 96 | 0.0 | 1.0 | 0.00 | 0.15 | 0.01 | 97 | 1020.7 |
| 20260902143042 | 63 | 96 | 0.0 | 4.0 | 0.00 | 0.15 | 0.01 | 97 | 1020.4 |
| 20260902141541 | 62 | 95 | 0.0 | 2.0 | 0.00 | 0.15 | 0.01 | 97 | 1020.6 |
| 20260902140042 | 62 | 95 | 0.0 | 2.0 | 0.00 | 0.15 | 0.01 | 97 | 1020.8 |
| 20260902134541 | 62 | 95 | 0.0 | 3.0 | 0.00 | 0.15 | 0.01 | 97 | 1020.6 |
| 20260902133038 | 62 | 95 | 0.0 | 4.0 | 0.00 | 0.15 | 0.01 | 97 | 1020.3 |
| 20260902131547 | 62 | 95 | 0.0 | 0.0 | 0.00 | 0.15 | 0.01 | 98 | 1020.1 |
| 20260902130049 | 62 | 95 | 0.0 | 2.0 | 0.00 | 0.15 | 0.01 | 97 | 1019.9 |